"America/Chicago Time","Lifetime Energy (kWh)","Power (W)","AC Volts RMS (V) ","AC Amps RMS (mA)","Grid Frequency (Hz)","Inverter Temperature (C)"
"08/06/12 09:54:21","429643.6846","118.9","215.54","563","60.0","33"
"08/06/12 09:59:21","429643.6939","120.4","215.84","566","60.03","34"
"08/06/12 10:04:22","429643.7034","122.1","215.57","575","60.03","35"
"08/06/12 10:09:21","429643.713","124.3","215.24","592","60.03","35"
"08/06/12 10:14:20","429643.7228","127.4","214.89","603","60.0","35"
"08/06/12 10:19:22","429643.7327","127.5","215.36","600","60.0","36"
"08/06/12 10:24:21","429643.7427","129.8","215.36","612","60.0","36"
"08/06/12 10:29:21","429643.7529","132.3","215.07","619","60.0","36"
"08/06/12 10:34:22","429643.7633","133.6","215.65","626","60.0","36"
"08/06/12 10:39:22","429643.7738","135.8","216.49","629","60.03","37"
"08/06/12 10:44:21","429643.7844","137.5","215.83","642","60.03","37"
"08/06/12 10:49:21","429643.7952","137.7","215.59","644","60.03","37"
"08/06/12 10:54:20","429643.8059","139.7","215.9","652","60.03","38"
"08/06/12 10:59:20","429643.8169","141.1","217.25","658","60.03","38"
"08/06/12 11:04:21","429643.8279","142.2","217.19","658","60.03","38"
"08/06/12 11:09:21","429643.8391","144.2","217.88","666","60.03","38"
"08/06/12 11:14:22","429643.8504","144.6","216.41","672","60.03","38"
"08/06/12 11:19:21","429643.8617","146.0","216.62","673","60.0","38"
"08/06/12 11:24:22","429643.873","146.9","217.68","674","60.03","38"
"08/06/12 11:29:22","429643.8845","144.7","216.95","669","60.0","38"
"08/06/12 11:34:21","429643.8959","148.0","216.25","684","60.0","39"
"08/06/12 11:39:20","429643.9075","148.8","215.12","694","60.03","39"
"08/06/12 11:44:21","429643.9191","149.7","215.45","700","60.03","39"
"08/06/12 11:49:21","429643.9309","150.9","216.08","698","60.03","39"
"08/06/12 11:54:21","429643.9426","151.6","216.52","703","60.0","39"
"08/06/12 11:59:20","429643.9542","152.4","215.05","707","60.0","39"
"08/06/12 12:04:21","429643.966","152.9","215.57","705","60.0","39"
"08/06/12 12:09:21","429643.9781","154.7","215.48","717","60.0","39"
"08/06/12 12:14:21","429643.9898","143.0","215.21","670","60.03","39"
"08/06/12 12:19:22","429644.0013","145.8","216.42","676","60.0","40"
"08/06/12 12:24:20","429644.013","154.6","216.98","710","60.03","40"
"08/06/12 12:29:20","429644.025","153.9","214.64","714","60.0","40"
"08/06/12 12:34:22","429644.0371","156.3","215.24","724","60.0","40"
"08/06/12 12:39:20","429644.0492","154.9","216.14","717","60.0","40"
"08/06/12 12:44:21","429644.0608","123.4","215.62","579","60.0","40"
"08/06/12 12:49:22","429644.07","24.1","213.04","170","60.0","38"
"08/06/12 12:54:21","429644.0806","156.0","217.09","721","60.03","39"
"08/06/12 12:59:20","429644.0928","156.7","216.4","724","60.0","39"
"08/06/12 13:04:20","429644.105","159.3","216.89","733","60.03","40"
"08/06/12 13:09:21","429644.116","64.0","212.38","328","60.03","39"
"08/06/12 13:14:21","429644.1271","159.2","215.91","731","60.03","39"
"08/06/12 13:19:21","429644.1388","143.5","217.9","664","60.0","39"
"08/06/12 13:24:21","429644.15","153.0","217.38","705","60.0","39"
"08/06/12 13:29:21","429644.1617","151.1","218.67","691","60.0","39"
"08/06/12 13:34:21","429644.1727","120.0","216.07","564","60.03","39"
"08/06/12 13:39:20","429644.1797","66.4","214.8","337","60.03","38"
"08/06/12 13:44:21","429644.1883","167.4","217.43","763","60.0","38"
"08/06/12 13:49:21","429644.1998","142.9","215.93","665","60.03","38"
"08/06/12 13:54:20","429644.21","132.1","216.3","619","60.0","38"
"08/06/12 13:59:21","429644.2202","125.2","215.78","589","60.03","39"
"08/06/12 14:04:20","429644.2297","133.1","216.35","621","60.03","39"
"08/06/12 14:09:22","429644.2402","129.8","216.65","612","60.03","39"
"08/06/12 14:14:21","429644.2505","118.4","216.08","555","60.03","39"
"08/06/12 14:19:20","429644.2588","115.2","217.2","541","60.0","39"
"08/06/12 14:24:21","429644.2672","110.8","217.0","526","60.0","39"
"08/06/12 14:29:21","429644.2761","88.9","216.19","428","60.0","39"
"08/06/12 14:34:20","429644.2854","109.1","216.57","514","60.0","39"
"08/06/12 14:39:21","429644.2941","122.4","216.76","575","60.03","39"
"08/06/12 14:44:21","429644.3029","80.5","216.47","396","60.03","39"
"08/06/12 14:49:21","429644.313","141.1","217.39","654","60.03","39"
"08/06/12 14:54:22","429644.3238","139.0","216.74","648","60.03","40"
"08/06/12 14:59:21","429644.3339","100.1","216.42","480","60.03","40"
"08/06/12 15:04:21","429644.3433","103.8","216.16","497","60.03","40"
"08/06/12 15:09:22","429644.3508","64.3","214.33","329","60.03","39"
"08/06/12 15:14:21","429644.3564","47.4","213.7","298","60.03","38"
"08/06/12 15:19:22","429644.3599","45.2","213.95","372","60.0","37"
"08/06/12 15:24:21","429644.3636","45.5","213.63","331","60.0","36"
"08/06/12 15:29:21","429644.3669","34.1","214.31","261","60.03","35"
"08/06/12 15:34:22","429644.3692","23.8","214.16","326","60.03","34"
"08/06/12 15:39:20","429644.3709","23.3","213.53","119","60.0","33"
"08/06/12 15:44:20","429644.3722","22.6","214.26","23","60.03","32"
"08/06/12 15:49:21","429644.3742","30.7","214.11","13","60.0","32"
"08/06/12 15:54:20","429644.3762","25.2","213.55","33","60.03","32"
"08/06/12 15:59:21","429644.3779","13.8","213.44","34","60.03","31"
"08/06/12 16:04:22","429644.3791","11.1","214.46","113","60.03","31"
"08/06/12 16:09:21","429644.3803","18.5","214.53","15","60.03","31"
"08/06/12 16:14:20","429644.3817","12.8","214.78","180","60.03","30"
"08/06/12 16:19:21","429644.3826","12.2","213.55","138","60.0","30"
"08/06/12 16:24:22","429644.3833","0.0","213.72","0","60.03","30"
"08/06/12 16:29:22","429644.3846","15.1","215.28","66","60.0","29"
"08/06/12 16:34:21","429644.3864","15.4","214.52","176","60.03","29"
"08/06/12 16:39:21","429644.3889","31.9","214.4","218","60.03","30"
"08/06/12 16:44:21","429644.3917","25.2","214.54","84","60.03","30"
"08/06/12 16:49:21","429644.3937","27.6","214.09","119","60.03","30"
"08/06/12 16:54:20","429644.3956","13.4","213.79","103","60.03","30"
"08/06/12 16:59:22","429644.3966","13.5","214.18","72","60.03","30"
"08/06/12 17:04:21","429644.3974","0.0","214.81","0","60.03","30"
"08/06/12 17:09:22","429644.3981","10.3","214.77","54","60.03","29"
"08/06/12 17:14:22","429644.3985","0.0","214.84","0","60.0","29"
"08/06/12 17:19:22","429644.399","14.0","214.99","4","60.0","29"
"08/06/12 17:24:21","429644.3996","13.6","214.07","0","60.03","28"
"08/06/12 17:29:22","429644.4003","11.8","214.18","60","60.03","28"
"08/06/12 17:34:21","429644.4008","14.0","213.12","3","60.03","28"
"08/06/12 17:39:22","429644.4015","35.8","213.82","142","60.03","28"
"08/06/12 17:44:22","429644.4035","16.9","215.0","249","60.03","28"
"08/06/12 17:49:22","429644.4057","48.7","214.4","325","60.03","28"
"08/06/12 17:54:21","429644.4081","20.5","214.75","188","60.0","29"
"08/06/12 17:59:21","429644.411","25.1","213.96","298","60.07","29"
"08/06/12 18:04:21","429644.4126","16.2","214.48","29","60.03","29"
"08/06/12 18:09:22","429644.4141","13.8","214.8","12","59.96","30"
"08/06/12 18:14:22","429644.4166","29.4","214.89","85","60.0","30"
"08/06/12 18:19:21","429644.4185","33.8","213.93","293","60.03","30"
"08/06/12 18:24:21","429644.4197","14.1","214.94","5","60.03","30"
"08/06/12 18:29:22","429644.4209","13.9","214.34","117","60.03","30"
"08/06/12 18:34:22","429644.4221","14.7","213.8","14","60.07","30"
"08/06/12 18:39:22","429644.4229","12.0","214.53","20","60.03","30"
"08/07/12 06:34:24","429644.4243","0.0","216.86","0","60.0","19"
"08/07/12 06:39:25","429644.4246","10.3","215.25","0","60.03","19"
"08/07/12 06:44:25","429644.4249","0.0","215.29","0","60.0","19"
"08/07/12 06:49:26","429644.4255","14.6","214.52","6","60.03","19"
"08/07/12 06:54:26","429644.4265","13.2","214.89","5","60.03","19"
"08/07/12 06:59:24","429644.4277","16.1","212.63","40","60.0","20"
"08/07/12 07:04:26","429644.4291","17.6","213.37","42","60.03","20"
"08/07/12 07:09:24","429644.4307","32.2","215.42","29","60.03","20"
"08/07/12 07:14:24","429644.4325","34.6","215.39","142","60.03","21"
"08/07/12 07:19:24","429644.4346","24.6","214.91","59","60.03","21"
"08/07/12 07:24:25","429644.4369","32.8","214.69","205","60.03","22"
"08/07/12 07:29:25","429644.4395","39.0","215.61","273","60.0","22"
"08/07/12 07:34:25","429644.4423","32.8","215.29","200","60.03","23"
"08/07/12 07:39:26","429644.4454","46.6","215.55","281","60.03","23"
"08/07/12 07:44:24","429644.4488","52.3","214.56","227","60.03","24"
"08/07/12 07:49:26","429644.4524","42.3","214.73","382","60.03","24"
"08/07/12 07:54:24","429644.4562","44.4","214.78","312","60.03","25"
"08/07/12 07:59:25","429644.4601","45.8","215.69","145","60.03","25"
"08/07/12 08:04:25","429644.4639","59.9","214.85","178","60.03","26"
"08/07/12 08:09:25","429644.4678","54.0","215.64","351","60.03","26"
"08/07/12 08:14:25","429644.4718","51.4","214.3","337","60.0","27"
"08/07/12 08:19:26","429644.4762","70.6","216.31","377","60.0","27"
"08/07/12 08:24:24","429644.4806","65.0","216.31","426","60.03","28"
"08/07/12 08:29:25","429644.4864","76.0","216.24","375","60.0","28"
"08/07/12 08:34:24","429644.4921","75.9","216.19","375","60.03","28"
"08/07/12 08:39:25","429644.4984","81.9","216.75","400","60.03","28"
"08/07/12 08:44:26","429644.5048","85.0","216.18","416","60.03","29"
"08/07/12 08:49:26","429644.5116","88.1","217.33","423","60.0","29"
"08/07/12 08:54:25","429644.5184","90.6","217.4","436","60.03","30"
"08/07/12 08:59:24","429644.5256","93.4","216.55","452","60.0","30"
"08/07/12 09:04:24","429644.5329","95.8","214.7","468","60.03","31"
"08/07/12 09:09:26","429644.5405","98.7","216.12","477","60.0","31"
"08/07/12 09:14:25","429644.5483","101.5","216.66","486","60.0","31"
"08/07/12 09:19:26","429644.5563","103.9","216.28","498","60.0","31"
"08/07/12 09:24:24","429644.5644","106.5","216.37","506","60.03","32"
"08/07/12 09:29:25","429644.5728","108.2","216.05","515","60.0","32"
"08/07/12 09:34:24","429644.5812","110.9","217.22","524","60.03","32"
"08/07/12 09:39:25","429644.59","113.4","217.09","533","60.0","32"
"08/07/12 09:44:25","429644.5989","115.6","216.69","548","60.0","33"
"08/07/12 09:49:25","429644.608","117.4","217.93","552","60.03","33"
"08/07/12 09:54:25","429644.6172","119.3","218.44","559","60.0","33"
"08/07/12 09:59:26","429644.6266","122.0","217.6","571","60.03","34"
"08/07/12 10:04:25","429644.6361","123.7","217.8","580","60.03","34"
"08/07/12 10:09:25","429644.6458","125.7","217.43","587","60.03","35"
"08/07/12 10:14:24","429644.6557","127.4","218.18","594","60.03","35"
"08/07/12 10:19:24","429644.6657","129.2","217.96","603","60.0","35"
"08/07/12 10:24:25","429644.6758","131.1","218.24","610","60.0","35"
"08/07/12 10:29:26","429644.6862","133.3","216.18","621","60.0","36"
"08/07/12 10:34:24","429644.6965","133.8","216.51","624","60.0","36"
"08/07/12 10:39:24","429644.707","134.9","216.67","630","60.0","37"
"08/07/12 10:44:24","429644.7176","137.6","216.49","636","60.03","37"
"08/07/12 10:49:25","429644.7283","138.6","216.32","642","60.0","37"
"08/07/12 10:54:25","429644.7392","140.8","217.73","649","60.0","37"
"08/07/12 10:59:25","429644.7503","141.8","218.19","656","60.03","38"
"08/07/12 11:04:26","429644.7614","144.5","217.13","671","60.03","37"
"08/07/12 11:09:26","429644.7727","145.1","221.39","655","60.0","38"
"08/07/12 11:14:26","429644.784","147.5","218.42","673","60.0","37"
"08/07/12 11:19:24","429644.7954","147.7","218.24","677","60.0","37"
"08/07/12 11:24:25","429644.807","148.8","214.06","698","60.03","37"
"08/07/12 11:29:25","429644.8186","149.6","215.54","694","60.0","37"
"08/07/12 11:34:26","429644.8303","150.4","217.13","694","60.03","37"
"08/07/12 11:39:24","429644.8419","149.8","218.8","687","60.03","38"
"08/07/12 11:44:25","429644.8537","150.5","218.77","691","60.03","38"
"08/07/12 11:49:25","429644.8655","151.5","217.33","699","60.03","38"
"08/07/12 11:54:24","429644.8772","152.3","219.27","699","60.07","38"
"08/07/12 11:59:25","429644.8891","153.1","219.29","700","60.07","38"
"08/07/12 12:04:25","429644.901","153.6","218.72","702","60.03","39"
"08/07/12 12:09:26","429644.9129","152.9","217.63","705","60.03","39"
"08/07/12 12:14:26","429644.9247","153.0","218.55","697","60.0","39"
"08/07/12 12:19:24","429644.9367","154.4","218.26","707","60.0","40"
"08/07/12 12:24:25","429644.9488","155.3","217.94","716","60.03","39"
"08/07/12 12:29:25","429644.961","157.0","217.54","720","60.0","39"
"08/07/12 12:34:25","429644.9732","156.9","217.96","720","60.0","39"
"08/07/12 12:39:24","429644.9854","157.0","218.09","720","60.0","39"
"08/07/12 12:44:24","429644.9976","155.4","217.36","718","60.03","39"
"08/07/12 12:49:25","429645.0097","154.8","218.4","711","60.0","39"
"08/07/12 12:54:25","429645.0218","154.2","217.73","710","60.03","39"
"08/07/12 12:59:25","429645.0338","154.4","219.04","702","60.03","39"
"08/07/12 13:04:25","429645.0458","152.8","218.91","694","60.0","40"
"08/07/12 13:09:25","429645.0578","154.1","218.3","707","60.0","40"
"08/07/12 13:14:26","429645.0698","153.3","218.63","701","60.03","39"
"08/07/12 13:19:25","429645.0818","153.0","217.86","700","60.03","39"
"08/07/12 13:24:26","429645.0936","151.7","217.88","698","60.03","39"
"08/07/12 13:29:25","429645.1054","150.3","218.27","692","60.03","40"
"08/07/12 13:34:26","429645.1171","150.1","218.97","691","60.0","40"
"08/07/12 13:39:24","429645.1286","148.5","219.02","681","60.0","40"
"08/07/12 13:44:26","429645.1403","148.3","218.69","681","60.03","40"
"08/07/12 13:49:25","429645.1518","147.0","218.81","676","60.0","41"
"08/07/12 13:54:25","429645.1632","146.2","218.72","672","60.03","40"
"08/07/12 13:59:24","429645.1745","144.8","218.22","669","60.03","41"
"08/07/12 14:04:24","429645.1857","145.8","217.57","676","60.0","40"
"08/07/12 14:09:26","429645.1971","144.1","217.94","664","60.0","40"
"08/07/12 14:14:25","429645.2082","141.5","217.24","659","60.03","40"
"08/07/12 14:19:25","429645.2193","142.3","216.48","663","60.03","39"
"08/07/12 14:24:26","429645.2302","138.8","216.69","645","60.03","39"
"08/07/12 14:29:25","429645.241","138.0","217.45","639","60.03","39"
"08/07/12 14:34:25","429645.2516","136.7","217.6","638","60.03","39"
"08/07/12 14:39:25","429645.2623","135.4","217.98","629","60.03","39"
"08/07/12 14:44:25","429645.2727","133.6","217.9","623","60.03","39"
"08/07/12 14:54:26","429645.2931","129.4","217.02","603","60.0","39"
"08/07/12 14:59:26","429645.3032","129.4","216.99","604","60.0","38"
"08/07/12 15:04:26","429645.3133","127.8","216.86","602","60.07","38"
"08/07/12 15:09:25","429645.3231","125.7","216.92","586","60.0","37"
"08/07/12 15:14:25","429645.3328","122.6","216.78","576","60.03","37"
"08/07/12 15:19:25","429645.3423","121.2","216.43","573","60.0","37"
"08/07/12 15:24:24","429645.3516","120.5","217.0","564","60.03","36"
"08/07/12 15:29:26","429645.361","118.6","217.51","557","60.03","35"
"08/07/12 15:34:24","429645.3701","115.9","216.95","547","60.03","34"
"08/07/12 15:39:24","429645.379","112.8","217.05","530","60.0","34"
"08/07/12 15:44:25","429645.3876","109.2","216.65","521","60.03","34"
"08/07/12 15:49:24","429645.396","106.0","215.98","508","60.0","35"
"08/07/12 15:54:26","429645.4042","104.1","216.35","498","60.03","35"
"08/07/12 15:59:26","429645.4122","101.8","216.57","484","60.0","35"
"08/07/12 16:04:25","429645.42","99.5","216.24","481","60.0","35"
"08/07/12 16:09:26","429645.4278","97.5","216.4","467","60.0","34"
"08/07/12 16:14:25","429645.4352","93.9","216.57","451","60.0","34"
"08/07/12 16:19:26","429645.4424","91.0","216.14","440","60.0","34"
"08/07/12 16:24:25","429645.4494","88.2","216.21","428","60.0","34"
"08/07/12 16:29:26","429645.4562","85.9","215.59","421","60.03","34"
"08/07/12 16:34:25","429645.4627","83.3","215.72","409","60.0","33"
"08/07/12 16:39:24","429645.469","80.5","214.89","399","60.03","32"
"08/07/12 16:44:24","429645.4751","76.9","215.06","385","60.03","32"
"08/07/12 16:49:24","429645.481","73.5","215.05","369","60.03","32"
"08/07/12 16:54:24","429645.4866","70.6","216.07","354","60.0","32"
"08/07/12 16:59:25","429645.4919","66.8","215.44","341","60.07","32"
"08/07/12 17:04:25","429645.497","63.2","215.87","326","60.03","31"
"08/07/12 17:09:25","429645.5017","41.0","215.48","138","60.03","31"
"08/07/12 17:14:26","429645.5055","48.7","215.45","423","60.03","31"
"08/07/12 17:19:25","429645.5094","56.7","216.17","217","60.03","31"
"08/07/12 17:24:25","429645.5132","57.8","214.24","217","60.0","30"
"08/07/12 17:29:26","429645.517","40.0","214.64","129","60.0","30"
"08/07/12 17:34:25","429645.5205","48.7","214.99","210","60.03","29"
"08/07/12 17:39:25","429645.5237","44.2","214.6","333","60.0","29"
"08/07/12 17:44:25","429645.5267","36.7","215.42","244","60.03","29"
"08/07/12 17:49:24","429645.5294","28.5","215.46","247","60.03","29"
"08/07/12 17:54:25","429645.5318","25.9","214.36","198","60.03","29"
"08/07/12 17:59:25","429645.534","21.6","214.85","15","60.03","28"
"08/07/12 18:04:24","429645.536","22.7","214.19","298","60.03","28"
"08/07/12 18:09:25","429645.5377","20.7","214.79","204","60.0","28"
"08/07/12 18:14:24","429645.5391","24.8","215.16","208","60.0","28"
"08/07/12 18:19:25","429645.5404","15.6","214.64","153","60.03","28"
"08/07/12 18:24:25","429645.5414","16.0","215.18","51","60.03","28"
"08/07/12 18:29:25","429645.5423","0.0","214.6","0","60.03","27"
"08/07/12 18:34:26","429645.543","15.0","214.46","0","60.0","27"
"08/07/12 18:39:25","429645.5436","0.0","215.42","0","60.03","27"
"08/07/12 18:44:25","429645.5441","13.4","215.15","23","60.03","26"
"08/07/12 18:49:26","429645.5447","5.8","213.94","0","60.0","26"
"08/07/12 18:54:25","429645.5452","0.0","214.51","96","60.03","26"
"08/07/12 18:59:26","429645.5458","2.8","214.36","15","60.03","26"
"08/07/12 19:04:25","429645.5465","16.4","213.52","3","60.0","25"
"08/07/12 19:09:28","429645.5474","11.9","213.42","0","60.0","25"
"08/07/12 19:14:24","429645.548","10.9","213.94","0","60.0","25"
"08/07/12 19:19:25","429645.5484","7.6","214.09","0","60.0","25"
"08/07/12 19:24:25","429645.5489","14.2","213.34","109","60.0","25"
"08/08/12 06:34:29","429645.5502","11.0","213.77","1","60.03","17"
"08/08/12 06:39:29","429645.5505","14.2","213.86","8","60.03","18"
"08/08/12 06:44:30","429645.5508","0.0","214.28","0","60.0","18"
"08/08/12 06:49:29","429645.5513","14.8","214.39","0","60.03","18"
"08/08/12 06:54:29","429645.5518","0.0","214.22","0","60.03","18"
"08/08/12 06:59:29","429645.5523","11.3","214.76","73","60.0","18"
"08/08/12 07:04:29","429645.553","11.6","215.03","0","60.03","18"
"08/08/12 07:09:29","429645.5536","14.6","215.24","24","60.03","18"
"08/08/12 07:14:29","429645.5545","12.2","214.95","35","60.0","18"
"08/08/12 07:19:30","429645.5554","2.8","215.34","0","60.03","19"
"08/08/12 07:24:28","429645.5562","12.0","214.57","22","60.03","19"
"08/08/12 07:29:29","429645.5575","16.1","214.53","203","60.03","19"
"08/08/12 07:34:29","429645.5602","39.5","213.96","352","60.03","19"
"08/08/12 07:39:29","429645.5633","33.5","213.95","80","60.03","20"
"08/08/12 07:44:29","429645.5663","41.6","214.47","313","60.03","20"
"08/08/12 07:49:29","429645.5687","13.3","213.45","223","60.03","21"
"08/08/12 07:54:29","429645.5708","25.2","214.02","101","60.03","21"
"08/08/12 07:59:29","429645.5727","21.5","214.05","218","60.03","21"
"08/08/12 08:04:30","429645.5741","14.7","214.36","44","60.03","22"
"08/08/12 08:09:30","429645.5751","11.9","214.1","32","60.03","22"
"08/08/12 08:14:28","429645.5759","3.3","213.01","228","60.03","22"
"08/08/12 08:19:29","429645.5769","10.8","213.84","15","60.0","22"
"08/08/12 08:24:29","429645.5782","26.6","214.06","182","60.0","22"
"08/08/12 08:29:29","429645.5795","17.0","213.42","47","60.03","22"
"08/08/12 08:34:29","429645.5819","39.5","213.63","224","60.0","22"
"08/08/12 08:39:29","429645.5842","26.9","213.74","189","60.0","22"
"08/08/12 08:44:29","429645.5862","3.7","213.33","32","60.0","23"
"08/08/12 08:49:28","429645.5872","14.9","213.21","0","60.0","23"
"08/08/12 08:54:28","429645.5883","11.4","213.81","30","60.03","23"
"08/08/12 08:59:29","429645.5891","0.0","214.4","63","60.03","22"
"08/08/12 09:04:29","429645.5896","1.1","214.58","205","60.03","22"
"08/08/12 09:09:28","429645.5906","11.7","213.61","12","60.03","23"
"08/08/12 09:14:29","429645.592","22.3","213.86","76","60.0","22"
"08/08/12 09:19:28","429645.5939","26.5","214.15","273","60.0","23"
"08/08/12 09:24:28","429645.5961","32.2","213.73","111","60.0","23"
"08/08/12 09:29:29","429645.5984","32.1","214.56","142","60.03","23"
"08/08/12 09:34:29","429645.6016","49.8","214.88","420","60.03","23"
"08/08/12 09:39:29","429645.6054","81.3","214.96","402","60.0","24"
"08/08/12 09:44:30","429645.6144","54.0","215.06","222","60.0","25"
"08/08/12 09:49:29","429645.6182","44.1","214.17","102","60.03","25"
"08/08/12 09:54:28","429645.622","47.5","214.68","365","60.0","26"
"08/08/12 09:59:29","429645.6252","43.6","214.39","211","60.0","26"
"08/08/12 10:04:28","429645.6279","30.5","214.05","232","60.03","27"
"08/08/12 10:09:28","429645.632","90.4","215.13","440","60.03","27"
"08/08/12 10:14:28","429645.6373","67.7","213.69","344","60.03","27"
"08/08/12 10:19:29","429645.6414","43.3","214.03","386","60.0","27"
"08/08/12 10:24:29","429645.6467","65.7","215.23","333","60.03","28"
"08/08/12 10:29:29","429645.6524","80.6","215.09","400","60.0","28"
"08/08/12 10:34:28","429645.6572","39.8","214.39","195","60.0","28"
"08/08/12 10:39:29","429645.6599","28.6","214.74","239","60.0","28"
"08/08/12 10:44:30","429645.6627","33.8","213.8","203","60.03","28"
"08/08/12 10:49:30","429645.6645","16.1","213.49","124","60.03","28"
"08/08/12 10:54:28","429645.6663","15.3","214.04","119","60.03","27"
"08/08/12 10:59:29","429645.6677","16.1","214.82","10","60.03","27"
"08/08/12 11:04:29","429645.669","24.3","214.93","269","60.0","27"
"08/08/12 11:09:28","429645.6703","21.2","214.57","97","60.03","26"
"08/08/12 11:14:29","429645.6722","28.4","214.51","20","60.03","26"
"08/08/12 11:19:29","429645.6748","39.3","215.19","157","60.0","25"
"08/08/12 11:24:28","429645.6785","53.0","215.16","365","60.03","25"
"08/08/12 11:29:29","429645.6819","42.1","214.29","284","60.03","26"
"08/08/12 11:34:29","429645.685","46.5","214.23","212","60.0","26"
"08/08/12 11:39:29","429645.688","44.0","213.39","149","60.03","26"
"08/08/12 11:44:29","429645.6907","33.6","213.33","159","60.0","26"
"08/08/12 11:49:30","429645.6929","33.0","214.5","242","60.0","25"
"08/08/12 11:54:28","429645.6957","48.8","214.96","367","60.03","25"
"08/08/12 11:59:28","429645.6989","46.5","214.56","184","60.03","25"
"08/08/12 12:04:28","429645.7024","50.3","214.44","215","60.03","26"
"08/08/12 12:09:28","429645.7058","52.4","214.46","140","60.03","26"
"08/08/12 12:14:29","429645.7097","48.5","215.28","382","60.03","26"
"08/08/12 12:19:28","429645.7145","76.5","216.4","380","60.0","26"
"08/08/12 12:24:29","429645.7194","42.7","215.07","235","60.03","26"
"08/08/12 12:29:29","429645.7233","61.3","215.79","310","60.03","27"
"08/08/12 12:34:29","429645.7279","75.9","215.21","376","60.07","27"
"08/08/12 12:39:28","429645.7346","94.7","214.33","460","60.03","27"
"08/08/12 12:44:28","429645.7412","76.3","214.69","380","60.03","28"
"08/08/12 12:49:28","429645.7474","70.3","214.16","355","60.03","28"
"08/08/12 12:54:28","429645.7525","71.1","215.24","358","60.0","28"
"08/08/12 12:59:29","429645.7598","121.2","216.63","573","60.03","29"
"08/08/12 13:04:29","429645.77","132.0","216.84","617","60.03","30"
"08/08/12 13:09:29","429645.7796","86.7","215.77","425","60.03","30"
"08/08/12 13:14:28","429645.7876","96.4","216.09","467","60.03","31"
"08/08/12 13:19:29","429645.7928","42.7","214.86","387","60.03","31"
"08/08/12 13:24:30","429645.7967","56.6","214.89","109","60.03","30"
"08/08/12 13:29:30","429645.8002","47.1","215.25","330","60.03","30"
"08/08/12 13:34:29","429645.8031","38.4","215.04","260","60.03","29"
"08/08/12 13:39:29","429645.8053","32.7","215.29","25","60.03","28"
"08/08/12 13:44:29","429645.8073","17.4","214.86","255","60.0","28"
"08/08/12 13:49:30","429645.8093","25.9","215.39","176","60.0","27"